Weather in Montpellier

France     43°37′36″N   3°52′06″E
temp.,
°C
wind,
m/s
gust,
m/s
humid.,
%
clouds,
%
prec.,
mm/h
press.,
hPa
HPBL,
m
15 may, sat
sat1523:00+13nw51256100 0.0 1015771
02:00+12wnw3758100 0.0 1014350
05:00+11w2267100 0.0 101358
08:00+12wsw1267100 0.0 1014101
11:00+12w1367100 0.1 1013246
14:00+13se1167100 0.1 1013437
17:00+13ssw1180100 0.1 101383
20:00+12ne1287100 0.2 101359
16 may, sun
sun1623:00+12w1189100 0.0 101314
02:00+11n119399 0.0 101211
05:00+11w1193100 0.4 101118
08:00+11wsw129538 1.0 101078
11:00+14ssw2386100 0.2 1011302
14:00+14sw3691100 0.8 1011274
17:00+17nw51163100 0.3 10111434
20:00+14nw5126485 0.3 1012868
17 may, mon
mon1723:00+12nw613666 0.0 10141006
02:00+11nw51266100 0.0 1014926
05:00+10wnw3872100 0.0 1015637
08:00+12wnw5116595 0.0 10161408
11:00+15wnw61248100 0.0 10161639
14:00+19wnw7123357 0.0 10162234
17:00+20wnw710355 0.0 10152288
20:00+16nw612480 0.0 10161580
18 may, tue
tue1823:00+12nw613596 0.0 10191045
02:00+11nw612676 0.0 1020788
05:00+10nw6116314 0.0 1021854
08:00+11wnw7136122 0.0 10221098
11:00+15nw7114581 0.0 10231513
14:00+17nw69376 0.0 10221680
17:00+19nw7934100 0.0 10212124
20:00+16nw610490 0.0 1022630
19 may, wed
wed1923:00+11nw39615 0.0 1024204
02:00+9wnw22695 0.0 102421
05:00+8wnw2276100 0.0 102433
08:00+12nw41158100 0.0 1024510
11:00+17nw78385 0.0 10241038
14:00+20nw79315 0.0 10232368
17:00+21nw783027 0.0 10212074
20:00+18wnw48445 0.0 1021344